Temp
11 11 11 10 10 9 8 6 5 4 4 3 3 2 3 3 2 2 1 0 -0 -1
11 10 10 10 9 8 6 6 5 3 2 1 1 2 2 2 1 1 -0 -1 -1 -1
11 10 10 9 9 7 6 4 4 2 1 -0 1 2 2 2 1 0 -1 -1 -1 -1
11 10 9 8 7 7 6 5 3 3 2 1 2 2 2 1 0 -0 -1 -2 -2 -2
10 9 8 7 6 5 5 4 3 2 1 2 2 2 1 0 -0 -1 -2 -2 -2 -3
9 8 7 6 5 5 4 3 1 2 2 2 2 1 0 -0 -1 -2 -2 -3 -4 -4
8 7 6 6 4 3 2 1 2 2 2 1 1 -0 -1 -1 -2 -2 -3 -4 -5 -5
6 5 5 4 2 1 0 1 1 1 0 0 -0 -1 -1 -2 -2 -3 -3 -4 -5 -5
5 4 3 2 2 1 1 0 0 0 -0 -0 -1 -1 -2 -3 -3 -3 -4 -4 -5 -6
3 2 2 1 1 0 0 -1 -1 -0 -0 -1 -1 -2 -2 -3 -3 -4 -4 -5 -6 -6
2 1 1 -0 0 -0 -1 -0 -0 -1 -1 -1 -2 -2 -3 -3 -4 -4 -5 -6 -6 -7
1 0 -0 0 -0 -1 -0 -0 -1 -1 -1 -2 -2 -3 -3 -4 -4 -4 -5 -6 -6 -7
0 0 -0 -0 -0 -0 -0 -1 -1 -1 -1 -2 -3 -3 -3 -4 -5 -5 -5 -6 -6 -7
-0 0 -0 -0 -0 -1 -1 -1 -1 -1 -2 -3 -3 -3 -4 -4 -5 -5 -6 -6 -6 -7
Height
1531 1534 1536 1538 1539 1540 1541 1541 1541 1541 1542 1541 1542 1543 1542 1540 1537 1537 1535 1531 1529 1528
1527 1530 1531 1532 1535 1538 1536 1537 1539 1542 1541 1540 1539 1541 1539 1536 1532 1531 1529 1526 1525 1522
1522 1523 1525 1528 1527 1526 1531 1533 1535 1533 1536 1539 1537 1536 1533 1530 1526 1526 1524 1522 1519 1516
1518 1518 1519 1522 1522 1524 1527 1527 1531 1530 1528 1531 1533 1529 1527 1525 1522 1520 1518 1516 1514 1511
1514 1515 1517 1517 1519 1520 1523 1522 1523 1522 1528 1529 1527 1524 1521 1519 1516 1514 1512 1510 1507 1506
1510 1512 1515 1517 1518 1518 1518 1520 1520 1523 1525 1523 1520 1518 1516 1513 1511 1509 1507 1505 1502 1501
1504 1510 1512 1514 1515 1515 1517 1516 1518 1520 1519 1516 1515 1514 1511 1508 1506 1504 1501 1499 1498 1496
1507 1508 1510 1510 1512 1512 1511 1516 1516 1514 1513 1512 1510 1508 1506 1504 1501 1498 1496 1494 1492 1490
1504 1505 1508 1510 1510 1512 1514 1512 1512 1509 1506 1505 1504 1502 1500 1499 1495 1492 1490 1487 1486 1485
1502 1506 1508 1509 1509 1508 1506 1505 1506 1506 1502 1500 1498 1496 1494 1492 1489 1486 1484 1481 1479 1478
1503 1503 1504 1505 1506 1504 1504 1503 1501 1500 1497 1494 1492 1491 1489 1487 1483 1480 1477 1475 1473 1471
1502 1503 1503 1502 1502 1501 1500 1498 1496 1493 1491 1488 1487 1485 1483 1480 1477 1474 1471 1470 1467 1465
1500 1500 1500 1499 1499 1497 1495 1492 1489 1487 1485 1483 1480 1479 1477 1474 1471 1467 1465 1463 1461 1460
1498 1498 1497 1496 1494 1492 1489 1486 1483 1480 1478 1476 1474 1472 1470 1468 1464 1461 1458 1455 1454 1453
Wind_Speed
22 19 19 21 22 26 27 27 23 17 16 13 18 18 18 22 22 23 22 21 20 21
23 25 28 27 25 28 29 27 18 14 12 15 16 17 20 20 21 21 21 20 20 24
27 30 29 29 33 32 27 16 20 17 14 13 14 18 21 23 22 21 21 21 23 25
31 33 32 32 31 30 27 26 16 22 13 9 15 20 23 24 22 22 22 23 26 26
33 34 32 30 28 21 17 17 15 6 8 14 19 21 23 22 21 21 23 27 28 24
32 31 26 24 19 20 15 7 4 9 11 17 20 22 21 22 20 22 25 28 25 20
33 27 24 20 17 10 6 3 7 11 19 23 22 20 23 20 20 25 26 24 21 23
26 23 20 15 12 8 5 7 15 19 24 19 19 22 21 21 22 25 25 25 22 21
19 13 11 12 9 3 7 16 17 24 19 19 21 20 21 22 24 25 26 24 20 20
13 14 11 7 6 16 15 13 22 19 20 20 21 22 22 24 25 26 28 24 22 22
14 13 12 8 23 14 14 19 19 21 20 22 22 23 24 24 26 29 27 23 23 23
9 5 15 21 13 14 18 19 20 21 23 24 24 24 24 24 26 29 26 22 22 22
12 21 10 10 14 17 20 21 23 24 24 25 26 25 25 25 27 28 27 23 22 21
9 11 13 16 19 19 21 23 24 26 26 27 28 28 26 25 28 28 28 26 24 22
Wind_Direction
223 225 228 236 235 232 226 222 209 214 261 259 280 316 305 306 309 311 312 315 316 311
222 222 230 229 234 230 224 222 224 266 283 302 324 302 309 308 312 313 317 316 313 310
221 223 229 235 227 213 213 220 246 244 295 309 296 307 308 315 317 317 316 317 317 318
221 222 221 215 211 217 232 243 250 275 294 294 299 308 312 313 314 314 316 318 319 320
214 211 210 218 222 230 246 251 279 272 281 290 302 309 309 314 316 316 315 316 317 316
217 214 219 228 244 253 256 240 292 294 288 299 304 305 312 320 317 315 313 316 315 305
217 219 229 240 249 240 224 292 295 282 289 298 300 308 318 318 313 317 316 315 300 293
218 226 236 222 192 217 251 271 277 278 300 298 305 312 316 311 310 315 315 309 294 290
216 221 203 189 253 229 240 286 280 288 288 297 304 309 309 305 309 311 313 308 290 289
203 188 203 222 229 286 269 270 282 283 291 299 302 309 306 304 306 308 311 301 293 284
179 185 187 286 304 285 289 283 284 288 295 299 302 304 303 303 303 306 303 291 291 282
177 272 296 296 277 282 282 287 290 296 298 297 298 299 298 299 298 305 297 290 289 283
277 290 287 290 291 292 293 295 298 298 296 294 293 295 295 295 296 302 297 286 283 278
282 296 294 296 297 299 298 298 298 296 295 293 292 291 289 289 294 300 295 286 282 277